Re: [心情] 潜水捡到不锈钢吸管...

作者
看板 Womentalk
时间
留言 50则留言,47人参与讨论
推嘘 42推 0嘘 8→
joecho: 纯嘘净滩 不从源头解决只是无意义的活动
fakon: 净滩真的很智障,一个礼拜又恢复原样,根本做秀活动
净滩怎么会是无意义的活动... 当然 表面上看起来 净滩减少海滩上的垃圾的速度是远远不及人类制造垃圾的速度的 但个人认为 净滩这个活动最有意义的是 让大家开始有环保意识 当你实际走在满布玻璃碎片的沙滩上 当你发现好多寄居蟹拿起塑胶容器当自己的家 当你察觉你的衣服已被汗水浸湿 但是垃圾却完全没有减少时 你会开始了解到 原来我们轻轻松松制造出来的垃圾 竟然会造成那么可怕的破坏力 而且竟然要花那么多的人力、时间、成本去收拾善后(而且还很难恢复原状) 净滩这个活动 对我而言不仅仅是当下减少了海滩上的垃圾而已 同时也减少了未来可能产生的垃圾量 (我每次捡完垃圾那阵子都不敢买瓶装饮料 用一次性用品都好有罪恶感XD) 其实 fakon兄台也讲到一个重点 很重要的是 不要让净滩沦为一种作秀活动 跟大家说实话 我自己也没有参加过那种大型的净滩活动 但每次我去海边玩水浮浅冲浪 看海看夕阳看日出 我都会在我返回的路途中 顺手捡起我途经区域的垃圾 并且也会请我的家人以及比较熟的朋友一起捡 然后再丢到岸上的垃圾桶或是垃圾集中区 (有时候我会故意提高音量说:欸经过有看到的垃圾顺便捡一捡啊~) 透过这种微不足道的"微净滩" 我想 或许有些看到的人会发现 原来净滩没有那么遥远 原来净滩不是作秀活动 原来我也可以净滩 至少 天真的我以为 每个去海边玩水的人都能顺手捡一些垃圾的话 垃圾便会少很多 我们的海滩会美丽非常多 建议关心环保或是喜欢自然环境的朋友们 有空可以去海边晃晃 捡捡垃圾感受一下 相信你们也会找到 属于每个人自己的净滩的意义的 -- ※ 发信站: 批踢踢实业坊(ptt.cc), 来自: 210.70.86.21 ※ 文章网址: https://www.ptt.cc/bbs/WomenTalk/M.1533906190.A.F29.html
1Flikewind88: 推这篇 08/10 21:04
2Fpharaonis: 推,就是有人乱扔垃圾才需要净滩啊 08/10 21:12
3Fabree726: 推!!! 08/10 21:15
4Fh7853837: 腿 08/10 21:16
5Fh7853837: 推 08/10 21:17
6Fddddd014: 那也只有会去净滩的人才会发展出这种意识,但是他们本来 08/10 21:25
7Fddddd014: 就是喜爱环保会去净滩的人啊 08/10 21:25
8FK30126: 海线人推 08/10 21:31
9Fminihou0218: 推善良 08/10 21:32
10Fhope836: 推 08/10 21:42
11Farlun: 心态的改变也很重要啊 08/10 21:42
12Fminifat: 大推环保意识 台湾的环保意识其实相当的高 08/10 21:43
13Feereer12325: 环工推 08/10 22:14
14Fbuchholiz: 推 08/10 22:28
15Fpowerki: 推这篇 一堆废物只会嘴炮跟打击做事的人 08/10 22:53
16Fganhua: 推 08/10 22:58
17Fmitsukiys: 推 08/10 23:03
18FlittleErin: 推!谢谢你 08/10 23:32
19Fshi0520: 推 不过根本解决之道是没有人类 08/10 23:35
20Fyaliieah: 推 08/10 23:41
21Fsharkimage: 推 08/10 23:45
22FJ0825N: 推 08/10 23:51
23Fu123u1233: 推 08/11 00:03
24Fanans62: 推微影响,之前爬山会顺便捡垃圾,现在团友会自己主动带 08/11 00:30
25Fanans62: 袋子跟我一起捡 08/11 00:30
26Fevan5885: 脚不酸的嘴最酸 08/11 00:40
27Fbluewink11: 推,之前办过相关活动,没净滩过的拜托真的去一回,一 08/11 00:49
28Fbluewink11: 定会有不同的体悟! 08/11 00:49
29Fq2520q: 那种人的逻辑本来就死掉了不用跟他认真 08/11 01:39
30Fasdf107362: 推 08/11 01:59
31Fmiya724: 推 08/11 02:46
32FIntroRomeo: 只能推了 有些人逻辑就是类似我洗澡还是会脏 干嘛每天 08/11 05:46
33FIntroRomeo: 洗 我不要动不流汗就好了 08/11 05:46
34Fyachun28: 推 08/11 08:45
35Fprintemps: 推! 08/11 09:54
36Fjune56: 推这篇 08/11 10:11
37Fmaccc: 失败主义者就是社会无法进步的主因 自身就是垃圾 08/11 10:40
38Febeta: 推你的理念!很不错! 08/11 11:16
39Fshelley0522: 推 08/11 11:22
40FMilandess: 推 不知道那些不动手的在嘴砲什么 08/11 15:12
41Fnininnini: 推 08/11 16:14
42Fcarpout: 推推 08/11 18:42
43Fchihuilo: 推你 08/11 19:03
44Fk1400: 08/11 22:00
45Fno1361: 正向 08/11 23:16
46Flkhtok: 推 08/11 23:29
47Fabcqq1717: 推 08/11 23:55
48Fcherryapril: 推这篇 08/12 07:24
49Fgeniusturtle: 推 08/12 12:41
50Fsodabubble: 推 08/13 14:54
看更多 rgtms 的文章,或回到 womentalk 看板

完整讨论串

留言数 标题 作者 日期
166 [心情] 潜水捡到不锈钢吸管... dewode 2018-08-10T11:19:39
52 >> Re: [心情] 潜水捡到不锈钢吸管... rgtms 2018-08-10T21:03:07
10 Re: [心情] 潜水捡到不锈钢吸管... guemao 2018-08-10T21:31:15